Regional Weather Roundup
Issued by NWS

Home | Current Version | Previous Version | Text Only | Print | Product List | Glossary On
Versions: 1 2 3 4 5 6 7 8 9 10 11 12 13 14 15 16 17 18 19 20 21 22 23 24 25 26 27
000
ASUS45 KBOU 270007
RWRCO

WEATHER ROUNDUP FOR COLORADO
NATIONAL WEATHER SERVICE DENVER/BOULDER CO
600 PM MDT SUN JUN 26 2016

NOTE: "FAIR" INDICATES FEW OR NO CLOUDS BELOW 12000 FEET WITH NO
SIGNIFICANT WEATHER AND/OR OBSTRUCTIONS TO VISIBILITY.

COZ001>005-013-030-031-270100-
...NORTHWEST COLORADO...

CITY           SKY/WX    TMP DP  RH WIND       PRES   REMARKS
CRAIG          FAIR      86  11   6 VRB6      30.28F
HAYDEN         FAIR      82  21  10 W8        30.31F
MEEKER         FAIR      86  14   7 NW10      30.28F
MOUNT WERNER   NOT AVBL
STEAMBOAT SPGS FAIR      79  29  16 SW7       30.34S
WALDEN         FAIR      77  23  13 NW10      30.43F
$$

COZ006>008-011-270100-
...WEST CENTRAL VALLEYS...

CITY           SKY/WX    TMP DP  RH WIND       PRES   REMARKS
GRAND JUNCTION FAIR      94  17   6 W12       30.10F
MONTROSE       FAIR      91  25   9 N14       30.20F
EAGLE          SUNNY     88  21   8 SW12      30.28F
RIFLE          FAIR      92  16   6 NW15G22   30.18F
DELTA          FAIR      97  16   5 NW10G17   30.15S
NUCLA          FAIR      93  21   7 NW14      30.23S
$$

COZ017>023-064>068-270100-
...SOUTHWEST COLORADO...

CITY           SKY/WX    TMP DP  RH WIND       PRES   REMARKS
DURANGO        FAIR      89  31  12 NW13      30.21F
CORTEZ         FAIR      93  29  10 NW8G20    30.16F
PAGOSA SPRINGS CLOUDY    78  37  23 S15       30.36R
TELLURIDE      FAIR      77  19  11 NW10G17   30.49S
WOLF CREEK PAS FAIR      59  32  36 S12       30.72F
$$

COZ009-010-012-014-032>034-037-058>063-270100-
...CENTRAL COLORADO...

CITY           SKY/WX    TMP DP  RH WIND       PRES   REMARKS
ASPEN          FAIR      82  24  12 N10G17    30.37F
BUENA VISTA    FAIR      79  21  11 NW18      30.33F
COPPER MTN     FAIR      64   9  11 NW17G24   30.74S
BERTHOUD PASS  PTSUNNY   54  43  66 NW18G26   30.77S
COTTONWOOD PAS CLOUDY    73  14  10 CALM      30.52F
GUNNISON       FAIR      81  28  15 N10G16    30.37F
KREMMLING      FAIR      82   0   4 NW12G18   30.36S
LEADVILLE      FAIR      71  11  10 N9G21     30.54F
MONARCH PASS   FAIR      64  21  19 MISG      30.80F
SALIDA         FAIR      88  22   9 SW7       30.35F
SUNLIGHT       FAIR      68  23  18 CALM      30.67S
WILKERSON PASS FAIR      63  39  42 E6        30.68R
$$

COZ069>075-270100-
...SAN LUIS VALLEY/SANGRE DE CRISTO MOUNTAINS...

CITY           SKY/WX    TMP DP  RH WIND       PRES   REMARKS
ALAMOSA        FAIR      81  34  18 SW12      30.30F
LA VETA PASS   FAIR      64  37  36 NE7       30.56S
SAGUACHE       FAIR      86  27  11 N13G18    30.31F
$$

COZ035-036-038>040-270100-
...NORTHERN COLORADO FRONT RANGE...

CITY           SKY/WX    TMP DP  RH WIND       PRES   REMARKS
DENVER INTL AP FAIR      90  41  18 NE12G17   30.16S
DMNS CITY PARK   N/A     91  34  13 N1G9      30.14S
AURORA         MOSUNNY   86  53  31 SE12      30.18F
FRONT RANGE AP PTSUNNY   86  46  25 S6        30.18S
ERIE MUNI ARPT FAIR      91  34  13 NE13G28   30.13F
BOULDER MUN AP FAIR      90  39  17 NE5       30.15S
CENTENNIAL     FAIR      85  46  25 S17       30.19F
BROOMFIELD     MOSUNNY   90  36  14 N6        30.18F
LONGMONT       FAIR      94  36  13 N6        30.15S
$$

COZ041-046-047-076>085-087-088-270100-
...PIKES PEAK/PALMER DIVIDE AND SOUTHERN FOOTHILLS...

CITY           SKY/WX    TMP DP  RH WIND       PRES   REMARKS
COLO. SPRINGS  PTSUNNY   78  50  37 E7        30.27F
A. F. ACADEMY    N/A     74  54  49 SW6       30.29R
SCHRIEVER AFB  NOT AVBL
ELLICOTT       FAIR     N/A N/A N/A SE14      30.25S
FALCON         FAIR      72  54  53 S6        30.33S
FORT CARSON    FAIR      82  49  32 E5        30.22S
LIMON          FAIR      84  47  27 S14       30.20S
MONUMENT HILL  FAIR      75  50  41 S13G20    30.34S
TRINIDAD       FAIR      83  51  33 SE13      30.20F
$$

COZ042>045-048>051-090-091-270100-
...NORTHEAST COLORADO...

CITY           SKY/WX    TMP DP  RH WIND       PRES   REMARKS
GREELEY ARPT   FAIR      90  45  20 NE14      30.13
AKRON          FAIR      88  50  27 SE17      30.12F
BURLINGTON     FAIR      89  51  27 SE17G36   30.13F
WRAY           FAIR      93  50  22 S12G31    30.09
STERLING       NOT AVBL
HOLYOKE        NOT AVBL
FORT MORGAN    FAIR      92  47  21 E6        30.12S
$$

COZ086-089-092>099-270100-
...SOUTHEAST COLORADO...

CITY           SKY/WX    TMP DP  RH WIND       PRES   REMARKS
PUEBLO         FAIR      92  51  24 SE15      30.11S
LA JUNTA       FAIR      93  55  27 SE22      30.09F
LAMAR          FAIR      87  58  37 SE15      30.08F
SPRINGFIELD      N/A     83  57  41 SE14      30.16F
$$




USA.gov is the U.S. government's official web portal to all federal, state and local government web resources and services.